Time,TemperatureF,DewpointF,PressureIn,WindDirection,WindDirectionDegrees,WindSpeedMPH,WindSpeedGustMPH,Humidity,HourlyPrecipIn,Conditions,Clouds,dailyrainin,SoftwareType,DateUTC
2013-07-14 18:06:00,84.3,75.5,29.94,NNE,19,0.0,0.0,75,0.00,,BKN030TCU,0.00,VWS V13.01,2013-07-14 23:06:00,
2013-07-14 18:11:00,84.1,75.7,29.94,NE,44,0.0,2.0,76,0.00,,BKN030TCU,0.00,VWS V13.01,2013-07-14 23:11:00,
2013-07-14 18:15:00,83.8,75.4,29.95,NE,51,0.0,2.0,76,0.00,,FEW040,0.00,VWS V13.01,2013-07-14 23:15:00,
2013-07-14 18:17:00,83.8,75.4,29.94,NE,51,0.0,0.0,76,0.00,,BKN030TCU,0.00,VWS V13.01,2013-07-14 23:17:00,
2013-07-14 18:22:00,83.8,75.4,29.95,NE,51,0.0,0.0,76,0.00,,BKN030TCU,0.00,VWS V13.01,2013-07-14 23:22:00,
2013-07-14 18:27:00,83.8,75.4,29.95,NE,51,0.0,0.0,76,0.00,,BKN030TCU,0.00,VWS V13.01,2013-07-14 23:27:00,
2013-07-14 18:30:00,83.8,75.4,29.95,NE,51,0.0,0.0,76,0.00,,FEW040,0.00,VWS V13.01,2013-07-14 23:30:00,
2013-07-14 18:32:00,83.8,75.4,29.95,NE,51,0.0,0.0,76,0.00,,BKN120,0.00,VWS V13.01,2013-07-14 23:32:00,
2013-07-14 18:37:00,83.8,75.4,29.94,NE,51,0.0,0.0,76,0.00,,BKN120,0.00,VWS V13.01,2013-07-14 23:37:00,
2013-07-14 18:42:00,83.8,75.4,29.95,NE,51,0.0,0.0,76,0.00,,BKN120,0.00,VWS V13.01,2013-07-14 23:42:00,
2013-07-14 18:45:00,83.8,75.4,29.96,NE,51,0.0,0.0,76,0.00,,FEW040,0.00,VWS V13.01,2013-07-14 23:45:00,
2013-07-14 18:47:00,83.8,75.4,29.95,NE,51,0.0,0.0,76,0.00,,BKN120,0.00,VWS V13.01,2013-07-14 23:47:00,
2013-07-14 18:52:00,83.8,75.4,29.95,NE,51,0.0,0.0,76,0.00,,BKN120,0.00,VWS V13.01,2013-07-14 23:52:00,
2013-07-14 18:57:00,83.8,75.4,29.96,NE,51,0.0,0.0,76,0.00,,BKN120,0.00,VWS V13.01,2013-07-14 23:57:00,
2013-07-14 19:00:00,83.8,75.4,29.95,NE,51,0.0,0.0,76,0.00,,FEW040,0.00,VWS V13.01,2013-07-15 00:00:00,
2013-07-14 19:02:00,83.8,75.4,29.96,NE,51,0.0,0.0,76,0.00,,SCT050,0.00,VWS V13.01,2013-07-15 00:02:00,
2013-07-14 19:07:00,83.8,75.4,29.96,NE,51,0.0,0.0,76,0.00,,SCT050,0.00,VWS V13.01,2013-07-15 00:07:00,
2013-07-14 19:12:00,83.8,75.4,29.96,NE,51,0.0,0.0,76,0.00,,SCT050,0.00,VWS V13.01,2013-07-15 00:12:00,
2013-07-14 19:15:00,83.8,75.4,29.95,NE,51,0.0,2.0,76,0.00,,SCT200,0.00,VWS V13.01,2013-07-15 00:15:00,
2013-07-14 19:17:00,83.8,75.4,29.96,NE,51,0.0,0.0,76,0.00,,SCT050,0.00,VWS V13.01,2013-07-15 00:17:00,
2013-07-14 19:22:00,83.8,75.4,29.96,NE,51,0.0,0.0,76,0.00,,SCT050,0.00,VWS V13.01,2013-07-15 00:22:00,
2013-07-14 19:27:00,83.8,75.4,29.96,NE,51,0.0,0.0,76,0.00,,SCT050,0.00,VWS V13.01,2013-07-15 00:27:00,
2013-07-14 19:30:00,83.8,75.4,29.95,NE,51,0.0,0.0,76,0.00,,SCT200,0.00,VWS V13.01,2013-07-15 00:30:00,
2013-07-14 19:33:00,83.8,75.4,29.96,NE,51,0.0,0.0,76,0.00,,SCT050,0.00,VWS V13.01,2013-07-15 00:33:00,
2013-07-14 19:38:00,83.8,75.4,29.96,NE,51,0.0,0.0,76,0.00,,SCT050,0.00,VWS V13.01,2013-07-15 00:38:00,
2013-07-14 19:43:00,83.8,75.4,29.97,NE,51,0.0,0.0,76,0.00,,SCT050,0.00,VWS V13.01,2013-07-15 00:43:00,
2013-07-14 19:45:00,83.8,75.4,29.96,NE,51,0.0,0.0,76,0.00,,SCT200,0.00,VWS V13.01,2013-07-15 00:45:00,
2013-07-14 19:48:00,83.8,75.4,29.97,NE,51,0.0,0.0,76,0.00,,SCT050,0.00,VWS V13.01,2013-07-15 00:48:00,
2013-07-14 19:53:00,83.8,75.4,29.96,NE,51,0.0,0.0,76,0.00,,SCT050,0.00,VWS V13.01,2013-07-15 00:53:00,
2013-07-14 19:58:00,83.8,75.4,29.97,NE,51,0.0,0.0,76,0.00,,SCT050,0.00,VWS V13.01,2013-07-15 00:58:00,
2013-07-14 20:00:00,83.8,75.4,29.95,NE,51,0.0,0.0,76,0.00,,SCT200,0.00,VWS V13.01,2013-07-15 01:00:00,
2013-07-14 20:03:00,83.8,75.4,29.97,NE,51,0.0,0.0,76,0.00,,FEW050,0.00,VWS V13.01,2013-07-15 01:03:00,
2013-07-14 20:08:00,83.8,75.4,29.97,NE,51,0.0,0.0,76,0.00,,FEW050,0.00,VWS V13.01,2013-07-15 01:08:00,
2013-07-14 20:13:00,83.8,75.4,29.97,NE,51,0.0,0.0,76,0.00,,FEW050,0.00,VWS V13.01,2013-07-15 01:13:00,
2013-07-14 20:15:00,83.8,75.4,29.96,NE,51,0.0,0.0,76,0.00,,SCT200,0.00,VWS V13.01,2013-07-15 01:15:00,
2013-07-14 20:18:00,83.8,75.4,29.97,NE,51,0.0,0.0,76,0.00,,FEW050,0.00,VWS V13.01,2013-07-15 01:18:00,
2013-07-14 20:23:00,83.8,75.4,29.97,NE,51,0.0,0.0,76,0.00,,FEW050,0.00,VWS V13.01,2013-07-15 01:23:00,
2013-07-14 20:28:00,83.8,75.4,29.97,NE,51,0.0,0.0,76,0.00,,FEW050,0.00,VWS V13.01,2013-07-15 01:28:00,
2013-07-14 20:30:00,83.8,75.4,29.96,NE,51,0.0,0.0,76,0.00,,SCT200,0.00,VWS V13.01,2013-07-15 01:30:00,
2013-07-14 20:33:00,83.8,75.4,29.97,NE,51,0.0,0.0,76,0.00,,FEW050,0.00,VWS V13.01,2013-07-15 01:33:00,
2013-07-14 20:38:00,83.8,75.4,29.98,NE,51,0.0,0.0,76,0.00,,FEW050,0.00,VWS V13.01,2013-07-15 01:38:00,
2013-07-14 20:43:00,83.8,75.4,29.98,NE,51,0.0,0.0,76,0.00,,FEW050,0.00,VWS V13.01,2013-07-15 01:43:00,
2013-07-14 20:45:00,83.8,75.4,29.97,NE,51,0.0,0.0,76,0.00,,SCT200,0.00,VWS V13.01,2013-07-15 01:45:00,
2013-07-14 20:48:00,83.8,75.4,29.98,NE,51,0.0,0.0,76,0.00,,FEW050,0.00,VWS V13.01,2013-07-15 01:48:00,
2013-07-14 20:53:00,83.8,75.4,29.98,NE,51,0.0,0.0,76,0.00,,FEW050,0.00,VWS V13.01,2013-07-15 01:53:00,
2013-07-14 20:58:00,83.8,75.4,29.98,NE,51,0.0,0.0,76,0.00,,FEW050,0.00,VWS V13.01,2013-07-15 01:58:00,
2013-07-14 21:00:00,83.8,75.4,29.97,NE,51,0.0,0.0,76,0.00,,SCT200,0.00,VWS V13.01,2013-07-15 02:00:00,
2013-07-14 21:03:00,83.8,75.4,29.99,NE,51,0.0,0.0,76,0.00,,CLR,0.00,VWS V13.01,2013-07-15 02:03:00,
2013-07-14 21:08:00,83.8,75.4,29.98,NE,51,0.0,0.0,76,0.00,,CLR,0.00,VWS V13.01,2013-07-15 02:08:00,
2013-07-14 21:13:00,83.8,75.4,29.98,NE,51,0.0,0.0,76,0.00,,CLR,0.00,VWS V13.01,2013-07-15 02:13:00,
2013-07-14 21:15:00,83.8,75.4,29.98,NE,51,0.0,0.0,76,0.00,,SCT200,0.00,VWS V13.01,2013-07-15 02:15:00,
2013-07-14 21:18:00,83.8,75.4,29.99,NE,51,0.0,0.0,76,0.00,,CLR,0.00,VWS V13.01,2013-07-15 02:18:00,
2013-07-14 21:23:00,83.8,75.4,29.99,NE,51,0.0,0.0,76,0.00,,CLR,0.00,VWS V13.01,2013-07-15 02:23:00,
2013-07-14 21:29:00,83.8,75.4,29.99,NE,51,0.0,0.0,76,0.00,,CLR,0.00,VWS V13.01,2013-07-15 02:29:00,
2013-07-14 21:30:00,83.8,75.4,29.97,NE,51,0.0,0.0,76,0.00,,SCT200,0.00,VWS V13.01,2013-07-15 02:30:00,
2013-07-14 21:34:00,83.8,75.4,29.99,NE,51,0.0,0.0,76,0.00,,CLR,0.00,VWS V13.01,2013-07-15 02:34:00,
2013-07-14 21:39:00,83.8,75.4,29.99,NE,51,0.0,0.0,76,0.00,,CLR,0.00,VWS V13.01,2013-07-15 02:39:00,
2013-07-14 21:44:00,83.8,75.4,29.99,NE,51,0.0,0.0,76,0.00,,CLR,0.00,VWS V13.01,2013-07-15 02:44:00,
2013-07-14 21:45:00,83.8,75.4,29.98,NE,51,0.0,0.0,76,0.00,,SCT200,0.00,VWS V13.01,2013-07-15 02:45:00,
2013-07-14 21:49:00,83.8,75.4,29.99,NE,51,0.0,0.0,76,0.00,,CLR,0.00,VWS V13.01,2013-07-15 02:49:00,
2013-07-14 21:54:00,83.8,75.4,29.99,NE,51,0.0,0.0,76,0.00,,CLR,0.00,VWS V13.01,2013-07-15 02:54:00,
2013-07-14 21:59:00,83.8,75.4,29.99,NE,51,0.0,0.0,76,0.00,,CLR,0.00,VWS V13.01,2013-07-15 02:59:00,
2013-07-14 22:00:00,83.8,75.4,29.98,NE,51,0.0,0.0,76,0.00,,SCT200,0.00,VWS V13.01,2013-07-15 03:00:00,
2013-07-14 22:04:00,83.8,75.4,30.00,NE,51,0.0,0.0,76,0.00,,CLR,0.00,VWS V13.01,2013-07-15 03:04:00,
2013-07-14 22:09:00,83.8,75.4,29.99,NE,51,0.0,0.0,76,0.00,,CLR,0.00,VWS V13.01,2013-07-15 03:09:00,
2013-07-14 22:14:00,83.8,75.4,29.99,NE,51,0.0,0.0,76,0.00,,CLR,0.00,VWS V13.01,2013-07-15 03:14:00,
2013-07-14 22:15:00,83.8,75.4,29.99,NE,51,0.0,0.0,76,0.00,,SCT200,0.00,VWS V13.01,2013-07-15 03:15:00,
2013-07-14 22:19:00,83.8,75.4,29.99,NE,51,0.0,0.0,76,0.00,,CLR,0.00,VWS V13.01,2013-07-15 03:19:00,
2013-07-14 22:25:00,83.8,75.4,30.00,NE,51,0.0,0.0,76,0.00,,CLR,0.00,VWS V13.01,2013-07-15 03:25:00,
2013-07-14 22:30:00,83.8,75.4,30.00,NE,51,0.0,0.0,76,0.00,,CLR,0.00,VWS V13.01,2013-07-15 03:30:00,
2013-07-14 22:35:00,83.8,75.4,30.00,NE,51,0.0,0.0,76,0.00,,CLR,0.00,VWS V13.01,2013-07-15 03:35:00,
2013-07-14 22:40:00,83.8,75.4,30.00,NE,51,0.0,0.0,76,0.00,,CLR,0.00,VWS V13.01,2013-07-15 03:40:00,
2013-07-14 22:45:00,83.8,75.4,30.00,NE,51,0.0,0.0,76,0.00,,CLR,0.00,VWS V13.01,2013-07-15 03:45:00,
2013-07-14 22:50:00,83.8,75.4,30.00,NE,51,0.0,0.0,76,0.00,,CLR,0.00,VWS V13.01,2013-07-15 03:50:00,
2013-07-14 22:55:00,83.8,75.4,30.00,NE,51,0.0,0.0,76,0.00,,CLR,0.00,VWS V13.01,2013-07-15 03:55:00,
2013-07-14 23:00:00,83.8,75.4,30.00,NE,51,0.0,0.0,76,0.00,,SCT035,0.00,VWS V13.01,2013-07-15 04:00:00,
2013-07-14 23:01:00,83.8,75.4,30.00,NE,51,0.0,0.0,76,0.00,,SCT035,0.00,VWS V13.01,2013-07-15 04:01:00,
2013-07-14 23:02:00,83.8,75.4,30.00,NE,51,0.0,0.0,76,0.00,,SCT035,0.00,VWS V13.01,2013-07-15 04:02:00,
2013-07-14 23:07:00,83.8,75.4,30.00,NE,51,0.0,0.0,76,0.00,,SCT035,0.00,VWS V13.01,2013-07-15 04:07:00,
2013-07-14 23:12:00,83.8,75.4,30.00,NE,51,0.0,0.0,76,0.00,,SCT035,0.00,VWS V13.01,2013-07-15 04:12:00,
2013-07-14 23:15:00,83.8,75.4,29.99,NE,51,0.0,0.0,76,0.00,,SCT200,0.00,VWS V13.01,2013-07-15 04:15:00,
2013-07-14 23:17:00,83.8,75.4,29.99,NE,51,0.0,0.0,76,0.00,,SCT035,0.00,VWS V13.01,2013-07-15 04:17:00,
2013-07-14 23:23:00,83.8,75.4,29.99,NE,51,0.0,0.0,76,0.00,,SCT035,0.00,VWS V13.01,2013-07-15 04:23:00,
2013-07-14 23:28:00,83.8,75.4,29.99,NE,51,0.0,0.0,76,0.00,,SCT035,0.00,VWS V13.01,2013-07-15 04:28:00,
2013-07-14 23:30:00,83.8,75.4,30.00,NE,51,0.0,0.0,76,0.00,,SCT200,0.00,VWS V13.01,2013-07-15 04:30:00,
2013-07-14 23:33:00,83.8,75.4,29.99,NE,51,0.0,0.0,76,0.00,,SCT035,0.00,VWS V13.01,2013-07-15 04:33:00,
2013-07-14 23:38:00,83.8,75.4,29.99,NE,51,0.0,0.0,76,0.00,,SCT035,0.00,VWS V13.01,2013-07-15 04:38:00,
2013-07-14 23:43:00,83.8,75.4,30.00,NE,51,0.0,0.0,76,0.00,,SCT035,0.00,VWS V13.01,2013-07-15 04:43:00,
2013-07-14 23:45:00,83.8,75.4,30.00,NE,51,0.0,0.0,76,0.00,,SCT200,0.00,VWS V13.01,2013-07-15 04:45:00,
2013-07-14 23:48:00,83.8,75.4,30.00,NE,51,0.0,0.0,76,0.00,,SCT035,0.00,VWS V13.01,2013-07-15 04:48:00,
2013-07-14 23:53:00,83.8,75.4,29.99,NE,51,0.0,0.0,76,0.00,,SCT035,0.00,VWS V13.01,2013-07-15 04:53:00,
2013-07-14 23:58:00,83.8,75.4,29.99,NE,51,0.0,0.0,76,0.00,,SCT035,0.00,VWS V13.01,2013-07-15 04:58:00,